| time (UTC) | temp C | wind direction | speed KPH | gust KPH | rain 1hr cm | rain 24hr cm | rain mn cm | humidity % | barometer mb |
| 20260509061744 | 13 | 255 | 3.2 | 11.3 | 0.00 | 0.00 | 0.00 | 45 | 1030.6 |
| 20260509061244 | 13 | 283 | 4.8 | 16.1 | 0.00 | 0.00 | 0.00 | 45 | 1030.4 |
| 20260509060750 | 13 | 279 | 4.8 | 16.1 | 0.00 | 0.00 | 0.00 | 45 | 1030.6 |
| 20260509060743 | 13 | 264 | 4.8 | 16.1 | 0.00 | 0.00 | 0.00 | 45 | 1030.4 |
| 20260509055742 | 13 | 271 | 1.6 | 6.4 | 0.00 | 0.00 | 0.00 | 45 | 1030.4 |
| 20260509055244 | 13 | 274 | 3.2 | 14.5 | 0.00 | 0.00 | 0.00 | 44 | 1030.6 |
| 20260509054742 | 13 | 285 | 1.6 | 14.5 | 0.00 | 0.00 | 0.00 | 43 | 1030.4 |
| 20260509054242 | 13 | 268 | 4.8 | 11.3 | 0.00 | 0.00 | 0.00 | 44 | 1030.4 |
| 20260509053742 | 13 | 283 | 4.8 | 9.7 | 0.00 | 0.00 | 0.00 | 43 | 1030.4 |
| 20260509053242 | 13 | 238 | 4.8 | 9.7 | 0.00 | 0.00 | 0.00 | 44 | 1030.4 |
| 20260509052742 | 13 | 275 | 3.2 | 8.0 | 0.00 | 0.00 | 0.00 | 43 | 1030.4 |
| 20260509052242 | 13 | 254 | 1.6 | 9.7 | 0.00 | 0.00 | 0.00 | 43 | 1030.3 |
| 20260509051743 | 13 | 268 | 4.8 | 9.7 | 0.00 | 0.00 | 0.00 | 43 | 1030.3 |
| 20260509051242 | 13 | 265 | 3.2 | 8.0 | 0.00 | 0.00 | 0.00 | 43 | 1030.2 |
| 20260509050743 | 13 | 252 | 1.6 | 4.8 | 0.00 | 0.00 | 0.00 | 42 | 1030.3 |
| 20260509050241 | 13 | 259 | 1.6 | 16.1 | 0.00 | 0.00 | 0.00 | 41 | 1030.2 |
| 20260509045742 | 13 | 266 | 6.4 | 16.1 | 0.00 | 0.00 | 0.00 | 41 | 1030.2 |
| 20260509045241 | 13 | 266 | 3.2 | 8.0 | 0.00 | 0.00 | 0.00 | 42 | 1030.1 |
| 20260509044742 | 13 | 262 | 0.0 | 8.0 | 0.00 | 0.00 | 0.00 | 41 | 1030.1 |
| 20260509044732 | 13 | 276 | 1.6 | 8.0 | 0.00 | 0.00 | 0.00 | 41 | 1030.0 |
| 20260509043741 | 13 | 245 | 1.6 | 4.8 | 0.00 | 0.00 | 0.00 | 41 | 1030.0 |
| 20260509043242 | 13 | 245 | 1.6 | 8.0 | 0.00 | 0.00 | 0.00 | 40 | 1029.9 |
| 20260509043000 | 13 | 278 | 1.6 | 9.7 | 0.00 | 0.00 | 0.00 | 40 | 1029.9 |
| 20260509042242 | 13 | 283 | 3.2 | 9.7 | 0.00 | 0.00 | 0.00 | 39 | 1029.8 |
| 20260509041740 | 13 | 271 | 1.6 | 6.4 | 0.00 | 0.00 | 0.00 | 39 | 1029.7 |
| 20260509041240 | 14 | 282 | 0.0 | 9.7 | 0.00 | 0.00 | 0.00 | 38 | 1029.6 |
| 20260509040740 | 14 | 283 | 1.6 | 9.7 | 0.00 | 0.00 | 0.00 | 38 | 1029.6 |
| 20260509040505 | 14 | 283 | 3.2 | 9.7 | 0.00 | 0.00 | 0.00 | 37 | 1029.6 |
| 20260509040012 | 14 | 326 | 1.6 | 8.0 | 0.00 | 0.00 | 0.00 | 37 | 1029.5 |
| 20260509035500 | 14 | 266 | 4.8 | 6.4 | 0.00 | 0.00 | 0.00 | 37 | 1029.5 |
| 20260509034742 | 14 | 271 | 3.2 | 9.7 | 0.00 | 0.00 | 0.00 | 36 | 1029.4 |
| 20260509034247 | 15 | 288 | 1.6 | 11.3 | 0.00 | 0.00 | 0.00 | 35 | 1029.3 |
| 20260509034240 | 15 | 272 | 0.0 | 9.7 | 0.00 | 0.00 | 0.00 | 35 | 1029.3 |
| 20260509033502 | 15 | 278 | 6.4 | 11.3 | 0.00 | 0.00 | 0.00 | 35 | 1029.1 |
| 20260509033228 | 15 | 290 | 6.4 | 9.7 | 0.00 | 0.00 | 0.00 | 34 | 1028.9 |
| 20260509032502 | 15 | 250 | 3.2 | 8.0 | 0.00 | 0.00 | 0.00 | 34 | 1028.7 |
| 20260509032003 | 15 | 303 | 1.6 | 22.5 | 0.00 | 0.00 | 0.00 | 34 | 1028.6 |
| 20260509031240 | 15 | 295 | 8.0 | 22.5 | 0.00 | 0.00 | 0.00 | 33 | 1028.5 |
| 20260509030739 | 15 | 281 | 4.8 | 16.1 | 0.00 | 0.00 | 0.00 | 33 | 1028.4 |
| 20260509030456 | 16 | 281 | 3.2 | 17.7 | 0.00 | 0.00 | 0.00 | 32 | 1028.4 |
| 20260509025738 | 16 | 289 | 3.2 | 17.7 | 0.00 | 0.00 | 0.00 | 32 | 1028.3 |
| 20260509025241 | 16 | 272 | 3.2 | 8.0 | 0.00 | 0.00 | 0.00 | 32 | 1028.2 |
| 20260509024739 | 16 | 274 | 3.2 | 8.0 | 0.00 | 0.00 | 0.00 | 31 | 1028.1 |
| 20260509024239 | 17 | 6 | 1.6 | 9.7 | 0.00 | 0.00 | 0.00 | 30 | 1028.0 |
| 20260509023739 | 17 | 276 | 3.2 | 9.7 | 0.00 | 0.00 | 0.00 | 29 | 1028.0 |
| 20260509023504 | 18 | 274 | 0.0 | 4.8 | 0.00 | 0.00 | 0.00 | 28 | 1027.9 |
| 20260509023001 | 18 | 276 | 1.6 | 6.4 | 0.00 | 0.00 | 0.00 | 27 | 1027.9 |
| 20260509022239 | 18 | 10 | 1.6 | 11.3 | 0.00 | 0.00 | 0.00 | 27 | 1027.8 |
| 20260509021739 | 18 | 279 | 3.2 | 11.3 | 0.00 | 0.00 | 0.00 | 27 | 1027.8 |
| 20260509021238 | 18 | 274 | 1.6 | 11.3 | 0.00 | 0.00 | 0.00 | 26 | 1027.6 |
| 20260509020739 | 18 | 3 | 1.6 | 19.3 | 0.00 | 0.00 | 0.00 | 26 | 1027.5 |
| 20260509020237 | 19 | 31 | 6.4 | 19.3 | 0.00 | 0.00 | 0.00 | 25 | 1027.5 |
| 20260509015737 | 19 | 186 | 3.2 | 11.3 | 0.00 | 0.00 | 0.00 | 26 | 1027.5 |
| 20260509015237 | 20 | 344 | 3.2 | 19.3 | 0.00 | 0.00 | 0.00 | 25 | 1027.3 |
| 20260509014737 | 20 | 0 | 1.6 | 19.3 | 0.00 | 0.00 | 0.00 | 26 | 1027.2 |
| 20260509014237 | 20 | 327 | 4.8 | 16.1 | 0.00 | 0.00 | 0.00 | 25 | 1027.1 |
| 20260509013737 | 20 | 309 | 6.4 | 16.1 | 0.00 | 0.00 | 0.00 | 25 | 1027.1 |
| 20260509013456 | 20 | 324 | 4.8 | 19.3 | 0.00 | 0.00 | 0.00 | 26 | 1026.9 |
| 20260509012737 | 20 | 353 | 8.0 | 19.3 | 0.00 | 0.00 | 0.00 | 26 | 1026.9 |
| 20260509012240 | 20 | 285 | 3.2 | 9.7 | 0.00 | 0.00 | 0.00 | 26 | 1026.9 |
| 20260509011736 | 20 | 285 | 1.6 | 8.0 | 0.00 | 0.00 | 0.00 | 26 | 1026.9 |
| 20260509011236 | 20 | 300 | 3.2 | 14.5 | 0.00 | 0.00 | 0.00 | 26 | 1026.9 |
| 20260509010736 | 20 | 278 | 1.6 | 14.5 | 0.00 | 0.00 | 0.00 | 27 | 1026.8 |
| 20260509010236 | 19 | 259 | 1.6 | 9.7 | 0.00 | 0.00 | 0.00 | 27 | 1026.9 |
| 20260509005737 | 19 | 338 | 1.6 | 6.4 | 0.00 | 0.00 | 0.00 | 27 | 1026.8 |
| 20260509005455 | 19 | 45 | 1.6 | 14.5 | 0.00 | 0.00 | 0.00 | 28 | 1026.8 |
| 20260509004958 | 19 | 3 | 3.2 | 14.5 | 0.00 | 0.00 | 0.00 | 27 | 1026.9 |
| 20260509004236 | 19 | 281 | 0.0 | 14.5 | 0.00 | 0.00 | 0.00 | 27 | 1026.9 |
| 20260509003737 | 19 | 216 | 0.0 | 14.5 | 0.00 | 0.00 | 0.00 | 27 | 1026.7 |
| 20260509003236 | 19 | 42 | 4.8 | 11.3 | 0.00 | 0.00 | 0.00 | 27 | 1026.7 |
| 20260509002735 | 19 | 286 | 3.2 | 8.0 | 0.00 | 0.00 | 0.00 | 26 | 1026.8 |
| 20260509002236 | 19 | 248 | 3.2 | 8.0 | 0.00 | 0.00 | 0.00 | 26 | 1026.7 |
| 20260509001735 | 19 | 289 | 1.6 | 8.0 | 0.00 | 0.00 | 0.00 | 26 | 1026.8 |
| 20260509001236 | 20 | 302 | 1.6 | 11.3 | 0.00 | 0.00 | 0.00 | 27 | 1026.7 |
| 20260509000738 | 20 | 272 | 1.6 | 11.3 | 0.00 | 0.00 | 0.00 | 25 | 1026.8 |
| 20260509000728 | 20 | 264 | 0.0 | 8.0 | 0.00 | 0.00 | 0.00 | 25 | 1026.7 |
| 20260508235735 | 20 | 281 | 1.6 | 8.0 | 0.00 | 0.00 | 0.00 | 26 | 1026.8 |
| 20260508235236 | 20 | 48 | 1.6 | 6.4 | 0.00 | 0.00 | 0.00 | 26 | 1026.8 |
| 20260508234735 | 20 | 289 | 1.6 | 14.5 | 0.00 | 0.00 | 0.00 | 27 | 1026.8 |
| 20260508234239 | 19 | 324 | 3.2 | 14.5 | 0.00 | 0.00 | 0.00 | 28 | 1026.8 |
| 20260508233734 | 19 | 264 | 3.2 | 16.1 | 0.00 | 0.00 | 0.00 | 26 | 1026.7 |
| 20260508233234 | 19 | 282 | 4.8 | 16.1 | 0.00 | 0.00 | 0.00 | 26 | 1026.7 |
| 20260508232957 | 19 | 279 | 3.2 | 24.1 | 0.00 | 0.00 | 0.00 | 26 | 1026.6 |
| 20260508232453 | 19 | 265 | 6.4 | 24.1 | 0.00 | 0.00 | 0.00 | 26 | 1026.6 |
| 20260508231735 | 19 | 293 | 6.4 | 20.9 | 0.00 | 0.00 | 0.00 | 26 | 1026.6 |
| 20260508231233 | 20 | 258 | 6.4 | 20.9 | 0.00 | 0.00 | 0.00 | 25 | 1026.5 |
| 20260508230735 | 20 | 286 | 6.4 | 20.9 | 0.00 | 0.00 | 0.00 | 25 | 1026.5 |
| 20260508230234 | 20 | 282 | 6.4 | 22.5 | 0.00 | 0.00 | 0.00 | 25 | 1026.4 |
| 20260508225959 | 20 | 313 | 11.3 | 25.7 | 0.00 | 0.00 | 0.00 | 25 | 1026.2 |
| 20260508225233 | 20 | 336 | 8.0 | 25.7 | 0.00 | 0.00 | 0.00 | 25 | 1026.2 |
| 20260508224953 | 20 | 271 | 8.0 | 25.7 | 0.00 | 0.00 | 0.00 | 25 | 1026.2 |
| 20260508224234 | 20 | 293 | 8.0 | 19.3 | 0.00 | 0.00 | 0.00 | 25 | 1026.2 |
| 20260508223959 | 20 | 296 | 4.8 | 17.7 | 0.00 | 0.00 | 0.00 | 25 | 1026.0 |
| 20260508223234 | 20 | 323 | 4.8 | 22.5 | 0.00 | 0.00 | 0.00 | 25 | 1026.1 |
| 20260508222733 | 20 | 238 | 6.4 | 22.5 | 0.00 | 0.00 | 0.00 | 25 | 1025.7 |
| 20260508222716 | 20 | 295 | 8.0 | 22.5 | 0.00 | 0.00 | 0.00 | 24 | 1025.8 |
| 20260508221733 | 21 | 309 | 6.4 | 24.1 | 0.00 | 0.00 | 0.00 | 24 | 1025.7 |
| 20260508221456 | 20 | 258 | 8.0 | 24.1 | 0.00 | 0.00 | 0.00 | 25 | 1025.7 |
| 20260508220733 | 20 | 39 | 8.0 | 30.6 | 0.00 | 0.00 | 0.00 | 24 | 1025.6 |
| 20260508220232 | 21 | 275 | 8.0 | 30.6 | 0.00 | 0.00 | 0.00 | 24 | 1025.7 |
| 20260508215734 | 21 | 254 | 8.0 | 20.9 | 0.00 | 0.00 | 0.00 | 24 | 1025.8 |
| 20260508215232 | 21 | 255 | 4.8 | 22.5 | 0.00 | 0.00 | 0.00 | 24 | 1025.5 |
| 20260508214738 | 21 | 269 | 6.4 | 22.5 | 0.00 | 0.00 | 0.00 | 24 | 1025.5 |
| 20260508214232 | 21 | 264 | 6.4 | 32.2 | 0.00 | 0.00 | 0.00 | 24 | 1025.5 |
| 20260508213733 | 21 | 262 | 12.9 | 32.2 | 0.00 | 0.00 | 0.00 | 23 | 1025.4 |
| 20260508213237 | 21 | 268 | 6.4 | 20.9 | 0.00 | 0.00 | 0.00 | 24 | 1025.7 |
| 20260508212732 | 21 | 319 | 6.4 | 22.5 | 0.00 | 0.00 | 0.00 | 25 | 1025.6 |
| 20260508212232 | 20 | 290 | 11.3 | 22.5 | 0.00 | 0.00 | 0.00 | 23 | 1025.6 |
| 20260508211731 | 20 | 288 | 6.4 | 14.5 | 0.00 | 0.00 | 0.00 | 24 | 1025.5 |
| 20260508211232 | 20 | 293 | 3.2 | 22.5 | 0.00 | 0.00 | 0.00 | 25 | 1025.4 |
| 20260508210732 | 20 | 272 | 9.7 | 22.5 | 0.00 | 0.00 | 0.00 | 25 | 1025.4 |
| 20260508210232 | 20 | 295 | 3.2 | 32.2 | 0.00 | 0.00 | 0.00 | 25 | 1025.2 |
| 20260508205731 | 20 | 272 | 3.2 | 32.2 | 0.00 | 0.00 | 0.00 | 24 | 1025.3 |
| 20260508205230 | 20 | 269 | 11.3 | 25.7 | 0.00 | 0.00 | 0.00 | 24 | 1025.2 |
| 20260508204731 | 20 | 255 | 8.0 | 19.3 | 0.00 | 0.00 | 0.00 | 23 | 1025.1 |
| 20260508204455 | 20 | 314 | 9.7 | 20.9 | 0.00 | 0.00 | 0.00 | 23 | 1025.0 |
| 20260508203731 | 20 | 248 | 8.0 | 22.5 | 0.00 | 0.00 | 0.00 | 23 | 1024.9 |
| 20260508203720 | 20 | 243 | 6.4 | 22.5 | 0.00 | 0.00 | 0.00 | 23 | 1024.9 |
| 20260508202731 | 20 | 319 | 6.4 | 22.5 | 0.00 | 0.00 | 0.00 | 22 | 1024.8 |
| 20260508202230 | 20 | 286 | 6.4 | 20.9 | 0.00 | 0.00 | 0.00 | 21 | 1024.8 |
| 20260508201731 | 20 | 290 | 8.0 | 20.9 | 0.00 | 0.00 | 0.00 | 22 | 1024.8 |
| 20260508201229 | 20 | 224 | 3.2 | 19.3 | 0.00 | 0.00 | 0.00 | 24 | 1024.6 |
| 20260508200730 | 21 | 293 | 8.0 | 19.3 | 0.00 | 0.00 | 0.00 | 22 | 1024.7 |
| 20260508200230 | 21 | 278 | 4.8 | 20.9 | 0.00 | 0.00 | 0.00 | 22 | 1024.6 |
| 20260508195950 | 21 | 276 | 3.2 | 20.9 | 0.00 | 0.00 | 0.00 | 23 | 1024.6 |
| 20260508195230 | 21 | 257 | 8.0 | 16.1 | 0.00 | 0.00 | 0.00 | 23 | 1024.6 |
| 20260508194728 | 21 | 264 | 4.8 | 16.1 | 0.00 | 0.00 | 0.00 | 23 | 1024.5 |
| 20260508194230 | 21 | 223 | 4.8 | 16.1 | 0.00 | 0.00 | 0.00 | 23 | 1024.2 |
| 20260508193729 | 21 | 283 | 4.8 | 9.7 | 0.00 | 0.00 | 0.00 | 22 | 1024.5 |
| 20260508193231 | 21 | 265 | 3.2 | 14.5 | 0.00 | 0.00 | 0.00 | 25 | 1024.5 |
| 20260508192728 | 22 | 285 | 4.8 | 19.3 | 0.00 | 0.00 | 0.00 | 24 | 1024.4 |
| 20260508192228 | 22 | 281 | 4.8 | 19.3 | 0.00 | 0.00 | 0.00 | 23 | 1024.4 |
| 20260508191728 | 21 | 312 | 6.4 | 16.1 | 0.00 | 0.00 | 0.00 | 24 | 1024.5 |
| 20260508191228 | 21 | 319 | 3.2 | 16.1 | 0.00 | 0.00 | 0.00 | 25 | 1024.6 |
| 20260508190729 | 20 | 90 | 3.2 | 20.9 | 0.00 | 0.00 | 0.00 | 27 | 1024.7 |
| 20260508190228 | 20 | 266 | 11.3 | 20.9 | 0.00 | 0.00 | 0.00 | 26 | 1024.7 |
| 20260508185730 | 20 | 238 | 3.2 | 19.3 | 0.00 | 0.00 | 0.00 | 27 | 1024.6 |
| 20260508185228 | 20 | 247 | 3.2 | 24.1 | 0.00 | 0.00 | 0.00 | 26 | 1024.6 |
| 20260508184729 | 20 | 276 | 6.4 | 24.1 | 0.00 | 0.00 | 0.00 | 25 | 1024.6 |
| 20260508184448 | 21 | 282 | 4.8 | 24.1 | 0.00 | 0.00 | 0.00 | 26 | 1024.6 |
| 20260508183728 | 21 | 279 | 12.9 | 24.1 | 0.00 | 0.00 | 0.00 | 26 | 1024.6 |
| 20260508183228 | 21 | 264 | 6.4 | 25.7 | 0.00 | 0.00 | 0.00 | 27 | 1024.6 |
| 20260508182727 | 21 | 233 | 9.7 | 25.7 | 0.00 | 0.00 | 0.00 | 26 | 1024.7 |
| 20260508182228 | 20 | 274 | 6.4 | 17.7 | 0.00 | 0.00 | 0.00 | 27 | 1024.6 |
| 20260508181948 | 20 | 272 | 4.8 | 20.9 | 0.00 | 0.00 | 0.00 | 27 | 1024.5 |
| 20260508181229 | 20 | 295 | 4.8 | 20.9 | 0.00 | 0.00 | 0.00 | 29 | 1024.5 |
| 20260508180727 | 20 | 282 | 8.0 | 17.7 | 0.00 | 0.00 | 0.00 | 25 | 1024.6 |
| 20260508180227 | 20 | 317 | 8.0 | 17.7 | 0.00 | 0.00 | 0.00 | 27 | 1024.5 |
| 20260508175727 | 20 | 14 | 3.2 | 16.1 | 0.00 | 0.00 | 0.00 | 30 | 1024.5 |
| 20260508175227 | 20 | 292 | 6.4 | 16.1 | 0.00 | 0.00 | 0.00 | 28 | 1024.6 |
| 20260508174727 | 20 | 282 | 6.4 | 16.1 | 0.00 | 0.00 | 0.00 | 30 | 1024.6 |
| 20260508174227 | 19 | 302 | 1.6 | 16.1 | 0.00 | 0.00 | 0.00 | 33 | 1024.6 |
| 20260508173727 | 18 | 254 | 6.4 | 16.1 | 0.00 | 0.00 | 0.00 | 31 | 1024.6 |
| 20260508173226 | 18 | 289 | 3.2 | 17.7 | 0.00 | 0.00 | 0.00 | 34 | 1024.6 |
| 20260508172728 | 18 | 292 | 3.2 | 17.7 | 0.00 | 0.00 | 0.00 | 34 | 1024.6 |
| 20260508172226 | 18 | 347 | 3.2 | 9.7 | 0.00 | 0.00 | 0.00 | 40 | 1024.5 |
| 20260508171725 | 18 | 269 | 3.2 | 8.0 | 0.00 | 0.00 | 0.00 | 40 | 1024.6 |
| 20260508171225 | 18 | 3 | 1.6 | 4.8 | 0.00 | 0.00 | 0.00 | 44 | 1024.7 |
| 20260508170724 | 18 | 275 | 0.0 | 4.8 | 0.00 | 0.00 | 0.00 | 44 | 1024.8 |
| 20260508170226 | 17 | 68 | 3.2 | 4.8 | 0.00 | 0.00 | 0.00 | 46 | 1024.8 |
| 20260508165944 | 17 | 138 | 1.6 | 4.8 | 0.00 | 0.00 | 0.00 | 44 | 1024.7 |
| 20260508165227 | 17 | 338 | 0.0 | 4.8 | 0.00 | 0.00 | 0.00 | 51 | 1024.7 |
| 20260508164725 | 16 | 125 | 1.6 | 4.8 | 0.00 | 0.00 | 0.00 | 50 | 1024.8 |
| 20260508164226 | 16 | 42 | 1.6 | 6.4 | 0.00 | 0.00 | 0.00 | 53 | 1024.8 |
| 20260508163725 | 16 | 116 | 1.6 | 6.4 | 0.00 | 0.00 | 0.00 | 54 | 1024.7 |
| 20260508163224 | 15 | 117 | 1.6 | 4.8 | 0.00 | 0.00 | 0.00 | 58 | 1024.7 |
| 20260508162722 | 15 | 113 | 1.6 | 6.4 | 0.00 | 0.00 | 0.00 | 58 | 1024.7 |
| 20260508162224 | 15 | 83 | 1.6 | 6.4 | 0.00 | 0.00 | 0.00 | 58 | 1024.8 |
| 20260508161726 | 15 | 121 | 1.6 | 4.8 | 0.00 | 0.00 | 0.00 | 57 | 1024.8 |
| 20260508161224 | 15 | 75 | 3.2 | 4.8 | 0.00 | 0.00 | 0.00 | 57 | 1024.8 |
| 20260508160725 | 15 | 133 | 1.6 | 4.8 | 0.00 | 0.00 | 0.00 | 59 | 1024.9 |
| 20260508160224 | 14 | 109 | 1.6 | 4.8 | 0.00 | 0.00 | 0.00 | 62 | 1024.9 |
| 20260508155724 | 14 | 38 | 0.0 | 1.6 | 0.00 | 0.00 | 0.00 | 64 | 1025.0 |
| 20260508155224 | 13 | 116 | 0.0 | 1.6 | 0.00 | 0.00 | 0.00 | 65 | 1025.0 |
| 20260508154948 | 13 | 72 | 0.0 | 1.6 | 0.00 | 0.00 | 0.00 | 68 | 1025.0 |
| 20260508154222 | 13 | 72 | 0.0 | 1.6 | 0.00 | 0.00 | 0.00 | 69 | 1025.0 |
| 20260508153723 | 13 | 72 | 0.0 | 1.6 | 0.00 | 0.00 | 0.00 | 71 | 1025.0 |
| 20260508153225 | 12 | 14 | 0.0 | 1.6 | 0.00 | 0.00 | 0.00 | 71 | 1025.0 |
| 20260508152723 | 12 | 331 | 0.0 | 1.6 | 0.00 | 0.00 | 0.00 | 71 | 1025.0 |
| 20260508152224 | 12 | 343 | 0.0 | 0.0 | 0.00 | 0.00 | 0.00 | 71 | 1025.0 |
| 20260508151723 | 12 | 51 | 0.0 | 0.0 | 0.00 | 0.00 | 0.00 | 71 | 1025.1 |
| 20260508151223 | 12 | 51 | 0.0 | 0.0 | 0.00 | 0.00 | 0.00 | 72 | 1025.0 |
| 20260508150722 | 11 | 52 | 0.0 | 3.2 | 0.00 | 0.00 | 0.00 | 72 | 1024.9 |
| 20260508150219 | 11 | 39 | 0.0 | 3.2 | 0.00 | 0.00 | 0.00 | 73 | 1025.0 |
| 20260508145945 | 11 | 41 | 0.0 | 0.0 | 0.00 | 0.00 | 0.00 | 74 | 1024.9 |
| 20260508145223 | 11 | 276 | 0.0 | 0.0 | 0.00 | 0.00 | 0.00 | 73 | 1025.0 |
| 20260508144724 | 11 | 276 | 0.0 | 0.0 | 0.00 | 0.00 | 0.00 | 74 | 1025.1 |
| 20260508144702 | 11 | 276 | 0.0 | 0.0 | 0.00 | 0.00 | 0.00 | 74 | 1025.0 |
| 20260508143723 | 10 | 276 | 0.0 | 0.0 | 0.00 | 0.00 | 0.00 | 75 | 1025.0 |
| 20260508143651 | 9 | 289 | 0.0 | 0.0 | 0.00 | 0.00 | 0.00 | 77 | 1025.0 |
| 20260508143314 | 10 | 276 | 0.0 | 0.0 | 0.00 | 0.00 | 0.00 | 77 | 1025.0 |
| 20260508142821 | 10 | 276 | 0.0 | 0.0 | 0.00 | 0.00 | 0.00 | 76 | 1024.9 |
| 20260508141724 | 9 | 289 | 0.0 | 0.0 | 0.00 | 0.00 | 0.00 | 80 | 1025.0 |
| 20260508141219 | 9 | 289 | 0.0 | 0.0 | 0.00 | 0.00 | 0.00 | 81 | 1025.0 |
| 20260508140948 | 9 | 289 | 0.0 | 0.0 | 0.00 | 0.00 | 0.00 | 81 | 1025.0 |
| 20260508140223 | 9 | 275 | 0.0 | 0.0 | 0.00 | 0.00 | 0.00 | 81 | 1024.9 |
| 20260508135941 | 9 | 141 | 0.0 | 0.0 | 0.00 | 0.00 | 0.00 | 81 | 1024.9 |
| 20260508135444 | 9 | 141 | 0.0 | 0.0 | 0.00 | 0.00 | 0.00 | 81 | 1024.9 |
| 20260508134948 | 8 | 141 | 0.0 | 0.0 | 0.00 | 0.00 | 0.00 | 80 | 1025.0 |
| 20260508134221 | 8 | 141 | 0.0 | 0.0 | 0.00 | 0.00 | 0.00 | 81 | 1025.1 |
| 20260508133718 | 8 | 141 | 0.0 | 0.0 | 0.00 | 0.00 | 0.00 | 83 | 1024.9 |
| 20260508133217 | 7 | 154 | 0.0 | 0.0 | 0.00 | 0.00 | 0.00 | 83 | 1025.0 |
| 20260508132719 | 7 | 154 | 0.0 | 0.0 | 0.00 | 0.00 | 0.00 | 83 | 1025.0 |
| 20260508132221 | 7 | 155 | 0.0 | 0.0 | 0.00 | 0.00 | 0.00 | 83 | 1025.1 |
| 20260508132212 | 7 | 155 | 0.0 | 0.0 | 0.00 | 0.00 | 0.00 | 84 | 1025.1 |
| 20260508131221 | 7 | 155 | 0.0 | 0.0 | 0.00 | 0.00 | 0.00 | 84 | 1025.1 |
| 20260508130720 | 7 | 155 | 0.0 | 0.0 | 0.00 | 0.00 | 0.00 | 84 | 1025.0 |
| 20260508130220 | 6 | 155 | 0.0 | 0.0 | 0.00 | 0.00 | 0.00 | 84 | 1025.0 |
| 20260508125720 | 6 | 155 | 0.0 | 0.0 | 0.00 | 0.00 | 0.00 | 84 | 1025.0 |
| 20260508125220 | 6 | 155 | 0.0 | 0.0 | 0.00 | 0.00 | 0.00 | 83 | 1025.0 |
| 20260508124719 | 6 | 155 | 0.0 | 0.0 | 0.00 | 0.00 | 0.00 | 83 | 1024.9 |
| 20260508124218 | 6 | 155 | 0.0 | 0.0 | 0.00 | 0.00 | 0.00 | 82 | 1024.8 |
| 20260508123719 | 6 | 155 | 0.0 | 0.0 | 0.00 | 0.00 | 0.00 | 81 | 1024.7 |
| 20260508123221 | 6 | 155 | 0.0 | 0.0 | 0.00 | 0.00 | 0.00 | 82 | 1024.7 |
| 20260508122941 | 6 | 155 | 0.0 | 0.0 | 0.00 | 0.00 | 0.00 | 82 | 1024.7 |
| 20260508122219 | 7 | 154 | 0.0 | 0.0 | 0.00 | 0.00 | 0.00 | 81 | 1024.7 |
| 20260508121719 | 7 | 154 | 0.0 | 0.0 | 0.00 | 0.00 | 0.00 | 81 | 1024.8 |
| 20260508121219 | 7 | 154 | 0.0 | 0.0 | 0.00 | 0.00 | 0.00 | 81 | 1024.7 |
| 20260508120717 | 7 | 154 | 0.0 | 0.0 | 0.00 | 0.00 | 0.00 | 81 | 1024.7 |
| 20260508120214 | 7 | 154 | 0.0 | 0.0 | 0.00 | 0.00 | 0.00 | 80 | 1024.7 |
| 20260508120200 | 7 | 200 | 0.0 | 0.0 | 0.00 | 0.00 | 0.00 | 80 | 1024.7 |
| 20260508115218 | 7 | 200 | 0.0 | 0.0 | 0.00 | 0.00 | 0.00 | 80 | 1024.6 |
| 20260508115159 | 7 | 200 | 0.0 | 0.0 | 0.00 | 0.00 | 0.00 | 80 | 1024.6 |
| 20260508114218 | 7 | 200 | 0.0 | 0.0 | 0.00 | 0.00 | 0.00 | 80 | 1024.7 |
| 20260508113718 | 7 | 200 | 0.0 | 0.0 | 0.00 | 0.00 | 0.00 | 79 | 1024.7 |
| 20260508113218 | 7 | 200 | 0.0 | 0.0 | 0.00 | 0.00 | 0.00 | 78 | 1024.7 |
| 20260508112943 | 7 | 200 | 0.0 | 0.0 | 0.00 | 0.00 | 0.00 | 77 | 1024.7 |
| 20260508112442 | 8 | 200 | 0.0 | 0.0 | 0.00 | 0.00 | 0.00 | 77 | 1024.6 |
| 20260508111717 | 8 | 200 | 0.0 | 0.0 | 0.00 | 0.00 | 0.00 | 77 | 1024.7 |
| 20260508111219 | 7 | 214 | 0.0 | 0.0 | 0.00 | 0.00 | 0.00 | 78 | 1024.7 |
| 20260508110718 | 7 | 210 | 0.0 | 0.0 | 0.00 | 0.00 | 0.00 | 77 | 1024.7 |
| 20260508110218 | 7 | 209 | 0.0 | 0.0 | 0.00 | 0.00 | 0.00 | 76 | 1024.7 |
| 20260508105717 | 8 | 209 | 0.0 | 0.0 | 0.00 | 0.00 | 0.00 | 74 | 1024.7 |
| 20260508105218 | 8 | 209 | 0.0 | 0.0 | 0.00 | 0.00 | 0.00 | 74 | 1024.7 |
| 20260508104717 | 8 | 209 | 0.0 | 0.0 | 0.00 | 0.00 | 0.00 | 74 | 1024.7 |
| 20260508104440 | 8 | 190 | 0.0 | 0.0 | 0.00 | 0.00 | 0.00 | 74 | 1024.7 |
| 20260508103714 | 8 | 190 | 0.0 | 0.0 | 0.00 | 0.00 | 0.00 | 73 | 1024.7 |
| 20260508103214 | 9 | 190 | 0.0 | 0.0 | 0.00 | 0.00 | 0.00 | 72 | 1024.6 |
| 20260508102717 | 9 | 190 | 0.0 | 0.0 | 0.00 | 0.00 | 0.00 | 72 | 1024.6 |
| 20260508102216 | 9 | 193 | 0.0 | 0.0 | 0.00 | 0.00 | 0.00 | 72 | 1024.6 |
| 20260508101718 | 9 | 216 | 0.0 | 0.0 | 0.00 | 0.00 | 0.00 | 72 | 1024.6 |
| 20260508101216 | 9 | 216 | 0.0 | 0.0 | 0.00 | 0.00 | 0.00 | 71 | 1024.7 |
| 20260508100936 | 9 | 216 | 0.0 | 0.0 | 0.00 | 0.00 | 0.00 | 71 | 1024.7 |
| 20260508100216 | 9 | 216 | 0.0 | 0.0 | 0.00 | 0.00 | 0.00 | 71 | 1024.7 |
| 20260508095715 | 9 | 193 | 0.0 | 0.0 | 0.00 | 0.00 | 0.00 | 71 | 1024.8 |
| 20260508095217 | 9 | 210 | 0.0 | 0.0 | 0.00 | 0.00 | 0.00 | 71 | 1024.9 |
| 20260508094716 | 10 | 210 | 0.0 | 0.0 | 0.00 | 0.00 | 0.00 | 70 | 1024.9 |
| 20260508094438 | 10 | 213 | 0.0 | 0.0 | 0.00 | 0.00 | 0.00 | 70 | 1024.8 |
| 20260508093715 | 10 | 258 | 0.0 | 0.0 | 0.00 | 0.00 | 0.00 | 70 | 1024.7 |
| 20260508093415 | 10 | 237 | 0.0 | 1.6 | 0.00 | 0.00 | 0.00 | 69 | 1024.7 |
| 20260508093306 | 10 | 235 | 0.0 | 0.0 | 0.00 | 0.00 | 0.00 | 70 | 1024.7 |
| 20260508092215 | 10 | 161 | 0.0 | 1.6 | 0.00 | 0.00 | 0.00 | 68 | 1024.8 |
| 20260508091715 | 10 | 212 | 0.0 | 3.2 | 0.00 | 0.00 | 0.00 | 68 | 1024.8 |
| 20260508091216 | 10 | 196 | 0.0 | 4.8 | 0.00 | 0.00 | 0.00 | 67 | 1024.8 |
| 20260508090716 | 11 | 135 | 0.0 | 4.8 | 0.00 | 0.00 | 0.00 | 66 | 1024.7 |
| 20260508090703 | 11 | 269 | 0.0 | 4.8 | 0.00 | 0.00 | 0.00 | 66 | 1024.8 |
| 20260508085716 | 11 | 140 | 1.6 | 4.8 | 0.00 | 0.00 | 0.00 | 66 | 1024.8 |
| 20260508085214 | 11 | 96 | 0.0 | 3.2 | 0.00 | 0.00 | 0.00 | 65 | 1024.7 |
| 20260508084714 | 11 | 180 | 0.0 | 6.4 | 0.00 | 0.00 | 0.00 | 65 | 1024.7 |
| 20260508084435 | 11 | 161 | 3.2 | 6.4 | 0.00 | 0.00 | 0.00 | 64 | 1024.6 |
| 20260508083714 | 11 | 207 | 1.6 | 3.2 | 0.00 | 0.00 | 0.00 | 64 | 1024.6 |
| 20260508083211 | 11 | 164 | 3.2 | 3.2 | 0.00 | 0.00 | 0.00 | 63 | 1024.6 |
| 20260508082710 | 11 | 199 | 1.6 | 4.8 | 0.00 | 0.00 | 0.00 | 63 | 1024.7 |
| 20260508082212 | 11 | 226 | 3.2 | 4.8 | 0.00 | 0.00 | 0.00 | 62 | 1024.6 |
| 20260508081710 | 11 | 210 | 3.2 | 3.2 | 0.00 | 0.00 | 0.00 | 63 | 1024.6 |
| 20260508081215 | 11 | 220 | 3.2 | 3.2 | 0.00 | 0.00 | 0.00 | 63 | 1024.7 |
| 20260508081158 | 11 | 231 | 1.6 | 4.8 | 0.00 | 0.00 | 0.00 | 63 | 1024.7 |
| 20260508080214 | 11 | 213 | 3.2 | 4.8 | 0.00 | 0.00 | 0.00 | 63 | 1024.7 |
| 20260508075936 | 12 | 231 | 0.0 | 4.8 | 0.00 | 0.00 | 0.00 | 62 | 1024.7 |
| 20260508075209 | 12 | 199 | 3.2 | 4.8 | 0.00 | 0.00 | 0.00 | 62 | 1024.7 |
| 20260508074710 | 12 | 192 | 1.6 | 3.2 | 0.00 | 0.00 | 0.00 | 61 | 1024.7 |
| 20260508074209 | 12 | 210 | 1.6 | 3.2 | 0.00 | 0.00 | 0.00 | 61 | 1024.7 |
| 20260508073711 | 12 | 206 | 0.0 | 3.2 | 0.00 | 0.00 | 0.00 | 61 | 1024.6 |
| 20260508073212 | 12 | 196 | 0.0 | 1.6 | 0.00 | 0.00 | 0.00 | 60 | 1024.5 |
| 20260508072714 | 12 | 82 | 0.0 | 4.8 | 0.00 | 0.00 | 0.00 | 58 | 1024.6 |
| 20260508072212 | 13 | 82 | 1.6 | 4.8 | 0.00 | 0.00 | 0.00 | 57 | 1024.6 |
| 20260508071712 | 13 | 195 | 0.0 | 3.2 | 0.00 | 0.00 | 0.00 | 55 | 1024.6 |
| 20260508071212 | 13 | 192 | 0.0 | 3.2 | 0.00 | 0.00 | 0.00 | 55 | 1024.6 |
| 20260508070712 | 14 | 196 | 1.6 | 8.0 | 0.00 | 0.00 | 0.00 | 54 | 1024.7 |
| 20260508070213 | 14 | 204 | 0.0 | 8.0 | 0.00 | 0.00 | 0.00 | 53 | 1024.6 |
| 20260508065712 | 15 | 121 | 4.8 | 8.0 | 0.00 | 0.00 | 0.00 | 53 | 1024.6 |
| 20260508065213 | 16 | 37 | 1.6 | 6.4 | 0.00 | 0.00 | 0.00 | 49 | 1024.5 |
| 20260508064711 | 15 | 257 | 1.6 | 4.8 | 0.00 | 0.00 | 0.00 | 49 | 1024.5 |
| 20260508064211 | 15 | 155 | 0.0 | 1.6 | 0.00 | 0.00 | 0.00 | 50 | 1024.5 |
| 20260508063711 | 15 | 276 | 0.0 | 1.6 | 0.00 | 0.00 | 0.00 | 49 | 1024.4 |
| 20260508063210 | 16 | 0 | 0.0 | 4.8 | 0.00 | 0.00 | 0.00 | 49 | 1024.4 |
| 20260508062711 | 16 | 285 | 1.6 | 11.3 | 0.00 | 0.00 | 0.00 | 47 | 1024.4 |
| 20260508062211 | 17 | 296 | 0.0 | 11.3 | 0.00 | 0.00 | 0.00 | 47 | 1024.5 |